This demonstration page uses our WeatherBlox Daily Observations layout. Learn more.

Left ArrowRight Arrow

Hourly Observations for April 29, 2015

Temp ( °F °C ) Dew Point ( °F °C ) Humidity (%) Winds ( mph kmh ) Pressure ( in mb ) Visibility ( mi km ) Precip ( " mm )
12:53 am 00:53 Clear 47 8.3 38 3.3 71 71 N 5 7 30.12 1020 10 16 0.00 0.00
1:53 am 01:53 Clear 47 8.3 38 3.3 71 71 NNW 5 7 30.11 1020 10 16 0.00 0.00
2:53 am 02:53 Clear 43 6.1 37 2.8 80 80 Calm 30.10 1019 10 16 0.00 0.00
3:53 am 03:53 Clear 42 5.6 37 2.8 82 82 N 3 6 30.10 1019 10 16 0.00 0.00
4:53 am 04:53 Clear 42 5.6 37 2.8 82 82 NW 3 6 30.10 1019 10 16 0.00 0.00
5:53 am 05:53 Clear 40 4.4 35 1.7 83 83 Calm 30.09 1019 10 16 0.00 0.00
6:53 am 06:53 Sunny 40 4.4 36 2.2 86 86 WNW 3 6 30.09 1019 10 16 0.00 0.00
7:53 am 07:53 Sunny 46 7.8 40 4.4 79 79 NW 3 6 30.09 1019 10 16 0.00 0.00
8:53 am 08:53 Sunny 52 11.1 42 5.6 69 69 NNE 5 7 30.11 1020 10 16 0.00 0.00
9:53 am 09:53 Sunny 57 13.9 39 3.9 51 51 E 3 6 30.11 1020 10 16 0.00 0.00
10:53 am 10:53 Sunny 61 16.1 37 2.8 41 41 E 6 9 30.10 1019 10 16 0.00 0.00
11:53 am 11:53 Sunny 62 16.7 35 1.7 37 37 Calm 30.07 1018 10 16 0.00 0.00
12:53 pm 12:53 Sunny 64 17.8 36 2.2 35 35 NE 6 9 30.06 1018 10 16 0.00 0.00
1:53 pm 13:53 Sunny 67 19.4 38 3.3 35 35 undefined N/A 30.04 1017 10 16 0.00 0.00
2:53 pm 14:53 Sunny 68 20 38 3.3 33 33 VRB 5 7 30.01 1016 10 16 0.00 0.00
3:53 pm 15:53 Sunny 69 20.6 36 2.2 30 30 NNW 8 13 30.00 1016 10 16 0.00 0.00
4:53 pm 16:53 Sunny 69 20.6 35 1.7 29 29 N 8 13 29.98 1015 10 16 0.00 0.00
5:53 pm 17:53 Sunny 69 20.6 34 1.1 27 27 NE 8 13 29.97 1015 10 16 0.00 0.00
6:53 pm 18:53 Sunny 69 20.6 33 0.6 26 26 N 6 9 29.97 1015 10 16 0.00 0.00
7:53 pm 19:53 Sunny 65 18.3 34 1.1 32 32 ENE 5 7 29.96 1015 10 16 0.00 0.00
8:53 pm 20:53 Clear 62 16.7 29 -1.7 29 29 E 3 6 29.96 1015 10 16 0.00 0.00
9:53 pm 21:53 Clear 57 13.9 31 -0.6 37 37 ESE 6 9 29.97 1015 10 16 0.00 0.00
10:53 pm 22:53 Clear 56 13.3 31 -0.6 39 39 ESE 5 7 29.97 1015 10 16 0.00 0.00
11:53 pm 23:53 Clear 56 13.3 31 -0.6 39 39 ESE 3 6 29.96 1015 10 16 0.00 0.00

Powered by AerisWeather